Date String (YYYY-MM-DD hh:mm:ss) UTC,Instrument flags,absolute air pressure of the measurement (hPa),sample flow rate (lpm),inlet stack bypass flow (lpm),air temperature of the measurement (°C),ambient temperature measured by the external sensor (°C),aerosol sample conditioner tube jacket temperature (°C),OPC LED temperature (°C),internal box temperature (°C),relative humidity of the measurement (%),span deviation,mass concentration of particles derived from Lorenz-Mie calculation of OPC scattering (μg/m³),mass concentration of particles derived from Lorenz-Mie calculation of OPC scattering (μg/m³),mass concentration of particles derived from Lorenz-Mie calculation of OPC scattering (μg/m³)
DateTimeUTC,F1_M11,P_M11,Q1_M11,Q2_M11,T1_M11,T2_M11,T3_M11,T4_M11,T5_M11,U1_M11,ZSPAN_M11,X0_M11,X2_M11,X1_M11
2023-06-23 23:00:00,SystemResetWarning,0825.6,5.00,000.00,031.1,026.0,000.0,039.0,031.4,37.1,0002.1,0015.21,0009.02,0008.25
2023-06-23 23:01:00,SystemResetWarning,0825.6,5.00,000.00,031.4,026.5,000.0,039.1,031.6,34.1,0002.2,0016.07,0009.10,0008.29
2023-06-23 23:02:00,SystemResetWarning,0825.6,4.97,000.00,031.6,026.9,000.0,039.1,031.7,34.4,0002.0,0016.57,0009.23,0008.35
2023-06-23 23:03:00,SystemResetWarning,0825.5,5.05,000.00,031.8,027.3,000.0,039.2,031.8,34.3,0001.7,0017.50,0009.25,0008.36
2023-06-23 23:04:00,SystemResetWarning,0825.5,4.96,000.00,032.0,027.7,000.0,039.3,031.9,34.4,0001.8,0017.50,0009.23,0008.34
2023-06-23 23:05:00,SystemResetWarning,0825.5,5.03,000.00,032.1,027.9,000.0,039.4,031.9,33.9,0002.3,0017.33,0009.27,0008.33
2023-06-23 23:06:00,SystemResetWarning,0825.5,4.99,000.00,032.2,028.2,000.0,039.5,032.0,32.3,0002.5,0017.01,0009.26,0008.32
2023-06-23 23:07:00,SystemResetWarning,0825.5,4.98,000.00,032.2,027.9,000.0,039.6,032.1,31.9,0002.4,0017.87,0009.23,0008.30
2023-06-23 23:08:00,SystemResetWarning,0825.5,5.00,000.00,032.3,026.1,000.0,039.6,032.0,32.9,0002.3,0018.24,0009.23,0008.29
2023-06-23 23:09:00,SystemResetWarning,0825.5,5.00,000.00,032.3,025.1,000.0,039.6,031.9,32.9,0002.2,0018.20,0009.23,0008.26
2023-06-23 23:10:00,SystemResetWarning,0825.5,5.01,000.00,032.2,025.2,000.0,039.6,031.6,33.2,0002.2,0018.12,0009.23,0008.23
2023-06-23 23:11:00,SystemResetWarning,0825.5,5.01,000.00,032.0,025.6,000.0,039.7,031.4,32.9,0002.2,0018.07,0009.22,0008.23
2023-06-23 23:12:00,SystemResetWarning,0825.5,4.99,000.00,031.9,026.1,000.0,039.7,031.5,34.2,0002.0,0017.32,0009.15,0008.18
2023-06-23 23:13:00,SystemResetWarning,0825.5,4.98,000.00,031.8,026.6,000.0,039.7,031.6,35.2,0002.1,0016.88,0009.05,0008.11
2023-06-23 23:14:00,SystemResetWarning,0825.4,5.02,000.00,031.9,027.0,000.0,039.8,031.8,35.6,0002.4,0016.16,0009.07,0008.08
2023-06-23 23:15:00,SystemResetWarning,0825.4,4.98,000.00,032.1,027.4,000.0,039.8,031.9,33.4,0002.4,0016.21,0009.04,0008.06
2023-06-23 23:16:00,SystemResetWarning,0825.4,5.00,000.00,032.3,027.7,000.0,039.8,032.0,33.3,0002.2,0016.93,0009.00,0008.06
2023-06-23 23:17:00,SystemResetWarning,0825.3,5.02,000.00,032.4,028.0,000.0,039.9,032.1,31.9,0002.2,0016.64,0009.01,0008.05
2023-06-23 23:18:00,SystemResetWarning,0825.3,4.98,000.00,032.4,028.0,000.0,039.9,032.2,31.3,0002.3,0016.19,0009.02,0008.04
2023-06-23 23:19:00,SystemResetWarning,0825.3,5.00,000.00,032.5,026.4,000.0,039.9,032.1,31.1,0002.5,0016.21,0008.98,0008.00
2023-06-23 23:20:00,SystemResetWarning,0825.1,5.00,000.00,032.5,025.1,000.0,039.9,032.1,31.8,0002.7,0016.23,0008.92,0007.98
2023-06-23 23:21:00,SystemResetWarning,0825.1,5.01,000.00,032.5,025.1,000.0,039.9,031.9,32.2,0002.7,0016.14,0008.85,0007.92
2023-06-23 23:22:00,SystemResetWarning,0825.1,5.01,000.00,032.2,025.4,000.0,039.9,031.5,32.8,0002.8,0016.16,0008.79,0007.85
2023-06-23 23:23:00,SystemResetWarning,0825.1,5.00,000.00,032.1,025.9,000.0,039.9,031.5,33.1,0002.8,0016.25,0008.76,0007.80
2023-06-23 23:24:00,SystemResetWarning,0825.1,5.00,000.00,032.0,026.4,000.0,039.9,031.6,32.9,0003.0,0016.87,0008.71,0007.76
2023-06-23 23:25:00,SystemResetWarning,0825.1,5.00,000.00,031.9,026.9,000.0,040.0,031.7,33.0,0002.8,0016.61,0008.58,0007.71
2023-06-23 23:26:00,SystemResetWarning,0825.1,5.00,000.00,031.9,027.3,000.0,040.0,031.8,33.6,0002.6,0017.14,0008.58,0007.70
2023-06-23 23:27:00,SystemResetWarning,0825.1,5.00,000.00,031.9,027.7,000.0,040.0,031.9,33.5,0002.6,0017.71,0008.63,0007.69
2023-06-23 23:28:00,SystemResetWarning,0825.0,4.97,000.00,031.9,027.8,000.0,039.9,032.0,34.8,0002.3,0017.41,0008.63,0007.70
2023-06-23 23:29:00,SystemResetWarning,0825.0,5.00,000.00,031.9,026.6,000.0,039.9,032.0,35.1,0002.3,0017.38,0008.62,0007.68
2023-06-23 23:30:00,SystemResetWarning,0825.1,5.02,000.00,032.0,025.2,000.0,039.8,032.0,33.3,0002.3,0016.77,0008.63,0007.70
2023-06-23 23:31:00,SystemResetWarning,0825.1,4.98,000.00,032.1,025.1,000.0,039.8,031.8,34.1,0002.2,0016.52,0008.65,0007.70
2023-06-23 23:32:00,SystemResetWarning,0825.1,5.01,000.00,031.9,025.3,000.0,039.8,031.5,34.1,0002.1,0016.93,0008.70,0007.70
2023-06-23 23:33:00,SystemResetWarning,0825.2,5.00,000.00,031.8,025.8,000.0,039.8,031.5,33.9,0002.1,0017.53,0008.74,0007.73
2023-06-23 23:34:00,SystemResetWarning,0825.2,4.98,000.00,031.8,026.4,000.0,039.8,031.6,34.7,0002.0,0017.64,0008.75,0007.74
2023-06-23 23:35:00,SystemResetWarning,0825.1,5.00,000.00,031.8,026.8,000.0,039.8,031.7,35.8,0002.0,0017.91,0008.76,0007.75
2023-06-23 23:36:00,SystemResetWarning,0825.1,5.02,000.00,032.1,027.3,000.0,039.8,031.9,35.6,0002.1,0018.06,0008.79,0007.76
2023-06-23 23:37:00,SystemResetWarning,0825.2,4.98,000.00,032.3,027.6,000.0,039.8,032.1,34.6,0002.2,0017.71,0008.79,0007.76
2023-06-23 23:38:00,SystemResetWarning,0825.2,5.01,000.00,032.5,027.9,000.0,039.9,032.2,33.8,0002.1,0015.99,0008.75,0007.77
2023-06-23 23:39:00,SystemResetWarning,0825.2,5.01,000.00,032.7,027.7,000.0,039.9,032.3,34.1,0002.2,0015.95,0008.72,0007.76
2023-06-23 23:40:00,SystemResetWarning,0825.1,4.98,000.00,032.8,026.1,000.0,039.9,032.1,33.3,0002.1,0016.19,0008.66,0007.74
2023-06-23 23:41:00,SystemResetWarning,0825.1,5.01,000.00,032.9,025.1,000.0,039.9,032.1,33.3,0002.0,0016.67,0008.64,0007.71
2023-06-23 23:42:00,SystemResetWarning,0825.0,5.02,000.00,032.8,025.2,000.0,040.0,031.8,33.6,0002.3,0016.52,0008.61,0007.71
2023-06-23 23:43:00,SystemResetWarning,0824.9,5.00,000.00,032.6,025.6,000.0,040.0,031.6,33.2,0002.3,0016.44,0008.57,0007.70
2023-06-23 23:44:00,SystemResetWarning,0824.9,5.00,000.00,032.4,026.1,000.0,040.1,031.6,33.4,0002.3,0015.86,0008.53,0007.69
2023-06-23 23:45:00,SystemResetWarning,0824.9,5.00,000.00,032.4,026.6,000.0,040.1,031.8,33.3,0002.6,0015.77,0008.51,0007.68
2023-06-23 23:46:00,SystemResetWarning,0824.9,4.99,000.00,032.3,027.1,000.0,040.1,031.8,33.9,0002.6,0014.88,0008.46,0007.67
2023-06-23 23:47:00,SystemResetWarning,0824.9,5.00,000.00,032.3,027.5,000.0,040.2,031.9,33.9,0002.5,0014.73,0008.43,0007.65
2023-06-23 23:48:00,SystemResetWarning,0824.8,5.00,000.00,032.3,027.8,000.0,040.2,032.0,33.9,0002.7,0014.74,0008.40,0007.63
2023-06-23 23:49:00,SystemResetWarning,0824.8,5.00,000.00,032.3,028.1,000.0,040.2,032.1,33.4,0002.9,0015.18,0008.39,0007.61
2023-06-23 23:50:00,SystemResetWarning,0824.8,5.00,000.00,032.3,027.3,000.0,040.2,032.2,32.8,0002.6,0016.09,0008.39,0007.59
2023-06-23 23:51:00,SystemResetWarning,0824.7,5.00,000.00,032.3,025.6,000.0,040.1,032.1,33.6,0002.8,0016.12,0008.44,0007.60
2023-06-23 23:52:00,SystemResetWarning,0824.7,5.01,000.00,032.3,025.1,000.0,040.0,032.1,33.8,0002.7,0015.99,0008.49,0007.63
2023-06-23 23:53:00,SystemResetWarning,0824.7,5.01,000.00,032.1,025.3,000.0,040.0,031.7,33.6,0002.4,0016.64,0008.50,0007.65
2023-06-23 23:54:00,SystemResetWarning,0824.7,4.99,000.00,031.9,025.8,000.0,040.0,031.5,34.6,0002.3,0016.81,0008.50,0007.65
2023-06-23 23:55:00,SystemResetWarning,0824.8,5.00,000.00,031.8,026.3,000.0,040.0,031.6,34.8,0002.4,0016.85,0008.50,0007.66
2023-06-23 23:56:00,SystemResetWarning,0824.7,5.01,000.00,031.9,026.8,000.0,040.0,031.8,34.9,0002.0,0016.75,0008.46,0007.66
2023-06-23 23:57:00,SystemResetWarning,0824.8,5.01,000.00,031.9,027.2,000.0,039.9,032.0,35.0,0001.5,0016.78,0008.46,0007.68
2023-06-23 23:58:00,SystemResetWarning,0824.8,4.98,000.00,032.0,027.6,000.0,039.9,032.0,34.3,0001.5,0018.04,0008.51,0007.71
2023-06-23 23:59:00,SystemResetWarning,0824.7,4.99,000.00,032.1,027.9,000.0,040.0,032.1,34.2,0001.7,0018.37,0008.53,0007.72
